User: anonymous   Login
Location: Unspecified
(0.0000°N, 0.0000°E)
Time: 05:20:32
(UTC+02:00)
Language:

Resurs 01 Rocket - Orbit

View from above orbital plane
View from above orbital plane
View from above satellite
View from above satellite

Ground track
Ground track

The orbit data is extracted from the following two-line orbital elements,

1 23343U 94074B   17118.94306071 -.00000001 +00000-0 +74034-5 0  9992
2 23343 098.1584 155.5245 0005955 222.6625 189.2263 14.76696443209358
Epoch (UTC): 28 April 2017 22:38:00
Eccentricity: 0.0005955
inclination: 98.1584°
perigee height: 635 km
apogee height: 644 km
right ascension of ascending node: 155.5245°
argument of perigee: 222.6625°
revolutions per day: 14.76696443
mean anomaly at epoch: 189.2263°
orbit number at epoch: 20935

The dashed part of the orbit path shows where the satellite is in the earth's shadow,  

DLR